Regional Weather Roundup
Issued by NWS Grand Forks, ND

Home | Current Version | Previous Version | Graphics & Text | Print | Product List | Glossary On
Versions: 1 2 3 4 5 6 7 8 9 10 11 12 13 14 15 16 17 18 19 20 21 22 23 24 25 26 27 28 29 30 31 32 33 34 35 36 37 38 39 40 41 42 43 44 45 46 47 48 49 50
000
ASUS43 KFGF 011831
RWRFGF
PRAIRIE TO PINES  WEATHER ROUNDUP
NATIONAL WEATHER SERVICE EASTERN NORTH DAKOTA/GRAND FORKS ND
100 PM CDT SAT AUG 01 2015

 **SATELLITE DATA USED TO AUGMENT SKY COVER AT AUTOMATED STATIONS**
 *****  WEATHER ACROSS EASTERN NORTH DAKOTA  *****

CITY           SKY/WX    TMP DP  RH WIND       PRES   REMARKS
GRAND FORKS    MOSUNNY   82  53  36 SW9       29.84F
6HR MIN TEMP:  56; 6HR MAX TEMP:  82;

GRAND FRKS AFB SUNNY     82  56  42 S9        29.85F
GRAND FRKS NWS   N/A     82 N/A N/A SW9         N/A
DEVILS LAKE    SUNNY     82  55  39 SW8       29.84F
6HR MIN TEMP:  61; 6HR MAX TEMP:  81;

FARGO          MOSUNNY   83  54  36 S10       29.87F
WAHPETON ARPT  CLEAR     82  52  34 S10       29.87F
$$

 ***** WEATHER ACROSS CENTRAL AND WESTERN NORTH DAKOTA  *****

CITY           SKY/WX    TMP DP  RH WIND       PRES   REMARKS
BISMARCK       SUNNY     84  57  39 CALM      29.86F
6HR MIN TEMP:  57; 6HR MAX TEMP:  85;

MINOT          SUNNY     85  50  29 SE7       29.85F
6HR MIN TEMP:  56; 6HR MAX TEMP:  85;

JAMESTOWN      SUNNY     81  60  48 SE13      29.86F
6HR MIN TEMP:  58; 6HR MAX TEMP:  82;

MINOT AFB      SUNNY     86  51  29 VRB5      29.84
GARRISON         N/A     80  60  50 SE9       29.87F
WILLISTON      SUNNY     86  56  35 S7        29.88F
6HR MIN TEMP:  58; 6HR MAX TEMP:  86;

DICKINSON      SUNNY     86  51  29 NW6       29.91F
6HR MIN TEMP:  51; 6HR MAX TEMP:  86;

HETTINGER      SUNNY     90  43  19 NW14G28   29.95S
6HR MIN TEMP:  58; 6HR MAX TEMP:  91;

$$

 *****  OTHER AIRPORT OBSERVATIONS IN OUR AREA  *****

CITY           SKY/WX    TMP DP  RH WIND       PRES   REMARKS
WALHALLA       FAIR      81  55  41 MISG      29.83F
GRAFTON AIRPOR FAIR      81  55  41 VRB5      29.85F
VALLEY CITY AR FAIR      81  57  44 SE10      29.87F
CANDO          FAIR      81  55  41 SW7       29.86F
CAVALIER APRT  FAIR      81  55  41 SW7       29.83F
GWINNER        FAIR      81  63  54 SE12      29.87F
ROLLA            N/A     77  57  50 W7        29.88F
 ***** THE ABOVE OBSERVATIONS ARE NON NWS ARE NOT QUALITY
       CONTROLLED AND MAY MIS-REPORT RAIN FOR SNOW...
$$

  *****  WEATHER ACROSS NORTHERN MINNESOTA  *****

CITY           SKY/WX    TMP DP  RH WIND       PRES   REMARKS
FLAG ISLAND    SUNNY     75  46  35 W13       29.80F
WARROAD        SUNNY     77  55  47 SW13      29.84F
ROSEAU         SUNNY     79  55  44 W9G16     29.84F
HALLOCK        SUNNY     81  50  34 W7        29.83F
THF RVR FALLS  SUNNY     79  54  41 W6        29.87F
6HR MIN TEMP:  54; 6HR MAX TEMP:  77;

BAUDETTE       SUNNY     78  48  34 W10       29.85F
6HR MIN TEMP:  56; 6HR MAX TEMP:  78;

WASKISH        SUNNY     77  57  50 SW12      29.87F
CROOKSTON      SUNNY     79  55  44 SW8       29.86F
STEPHEN NDAWN    N/A     81  54  39 SW8         N/A
GREENBUSH NDAW   N/A     79  54  41 W9          N/A
$$
  *****  WEATHER ACROSS CENTRAL AND WEST MINNESOTA  *****

CITY           SKY/WX    TMP DP  RH WIND       PRES   REMARKS
FOSSTON        SUNNY     79  54  41 SW9       29.89F
BEMIDJI        SUNNY     78  51  39 SW12      29.89F
PARK RAPIDS    MOSUNNY   81  52  36 VRB5      29.92F
6HR MIN TEMP:  54; 6HR MAX TEMP:  81;

ELBOW LAKE     FAIR      80  59  48 S9        29.90F
WADENA         SUNNY     81  54  39 S8        29.91F
DETROIT LAKES  SUNNY     79  52  38 SW8       29.91F
MOORHEAD       SUNNY     81  57  44 SE7       29.87F
FERGUS FALLS   SUNNY     81  55  41 S7        29.88F
MORRIS MN      MOSUNNY   81  64  57 SE10      29.90F
STAPLES        SUNNY     81  50  34 SW7       29.92F
$$
  *****  WEATHER ELSEWHERE ACROSS MINNESOTA  *****

CITY           SKY/WX    TMP DP  RH WIND       PRES   REMARKS
DULUTH         MOSUNNY   79  48  33 W17G24    29.90F
6HR MIN TEMP:  60; 6HR MAX TEMP:  80;

INTRNTL FALLS  SUNNY     77  50  38 W14G21    29.84F
6HR MIN TEMP:  55; 6HR MAX TEMP:  77;

ELY            MOSUNNY   75  46  35 NW10G18   29.86F
CLOQUET        MOSUNNY   79  46  31 W12       29.90F
WHEATON          N/A     75  64  69 SE13      29.89F HAZE
BRAINERD       SUNNY     80  51  36 W9        29.93F
6HR MIN TEMP:  55; 6HR MAX TEMP:  81;

HIBBING        SUNNY     78  47  33 W8G17     29.89F
6HR MIN TEMP:  50; 6HR MAX TEMP:  78;

ALEXANDRIA     MOSUNNY   80  54  40 SE3       29.95F
6HR MIN TEMP:  58; 6HR MAX TEMP:  81;

SAINT CLOUD    SUNNY     82  51  34 W5        29.94F
6HR MIN TEMP:  60; 6HR MAX TEMP:  82;

MINNEAPOLIS    MOSUNNY   82  53  36 W9        29.95F
6HR MIN TEMP:  67; 6HR MAX TEMP:  83;

$$

  *****  WEATHER ACROSS SOUTH DAKOTA  *****

CITY           SKY/WX    TMP DP  RH WIND       PRES   REMARKS
SIOUX FALLS    CLOUDY    79  63  57 SW13G22   29.99F
6HR MIN TEMP:  65; 6HR MAX TEMP:  79;

BROOKINGS      MOSUNNY   82  63  51 S17       29.96F
WATERTOWN      MOSUNNY   82  64  54 S15G22    29.91F
6HR MIN TEMP:  62; 6HR MAX TEMP:  84; 6HR PCP: TRACE;

HURON          SUNNY     87  59  38 SW16G25   29.90F
6HR MIN TEMP:  62; 6HR MAX TEMP:  88;

SISSETON         N/A     78  65  63 S13       29.88F
ABERDEEN       MOSUNNY   84  69  60 S16G24    29.87F
6HR MIN TEMP:  60; 6HR MAX TEMP:  84;

MITCHELL       PTSUNNY   80  62  54 SW14G21   29.95R
PIERRE         SUNNY     88  59  37 SW16G25   29.88F
6HR MIN TEMP:  64; 6HR MAX TEMP:  88;

MOBRIDGE       SUNNY     90  64  42 W8G16     29.83F HX  91
RAPID CITY     SUNNY     85  58  39 S3        30.02F
6HR MIN TEMP:  60; 6HR MAX TEMP:  85;

$$

  *****  SOME WEATHER IN NEARBY STATES *****

CITY           SKY/WX    TMP DP  RH WIND       PRES   REMARKS
GLASGOW MT     SUNNY     89  46  22 SW8       29.86F
6HR MIN TEMP:  57; 6HR MAX TEMP:  89;

GREAT FALLS MT SUNNY     90  32  12 MISG      30.01F
6HR MIN TEMP:  51; 6HR MAX TEMP:  90;

CHEYENNE WY    SUNNY     86  46  24 S12G18    30.20F
6HR MIN TEMP:  53; 6HR MAX TEMP:  86;

SCOTTSBLUFF NE SUNNY     88  57  34 VRB5      30.06F
6HR MIN TEMP:  63; 6HR MAX TEMP:  88;

OMAHA NE       CLOUDY    81  66  60 VRB3      30.00F
6HR MIN TEMP:  68; 6HR MAX TEMP:  81; 6HR PCP: TRACE;

DES MOINES IA  PTSUNNY   84  69  60 W9        30.01F
6HR MIN TEMP:  69; 6HR MAX TEMP:  85;

DAVENPORT IA   MOSUNNY   83  63  50 SW10      30.00F
6HR MIN TEMP:  62; 6HR MAX TEMP:  83;

CHICAGO IL     MOSUNNY   83  55  38 W14       29.97F
6HR MIN TEMP:  66; 6HR MAX TEMP:  84;

EAU CLAIRE WI  SUNNY     80  51  36 W10       29.95F
6HR MIN TEMP:  63; 6HR MAX TEMP:  81;

LA CROSSE WI   SUNNY     80  61  52 E3        29.95F
6HR MIN TEMP:  67; 6HR MAX TEMP:  83;

$$

  *****  SOME NATIONAL WEATHER *****

CITY           SKY/WX    TMP DP  RH WIND       PRES   REMARKS
LA GUARDIA NY  MOSUNNY   89  53  29 W15G28    29.78F
6HR MIN TEMP:  79; 6HR MAX TEMP:  89;

RALEIGH NC     MOSUNNY   90  58  33 W5        29.93F
6HR MIN TEMP:  73; 6HR MAX TEMP:  91;

ATLANTA GA     PTSUNNY   83  61  47 NE18      30.00F
6HR MIN TEMP:  76; 6HR MAX TEMP:  86;

NEW ORLEANS LA MOSUNNY   88  69  53 NE10      29.93F HX  92
6HR MIN TEMP:  81; 6HR MAX TEMP:  88;

OKLAHOMA CITY  MOSUNNY   88  66  48 S12       30.08F HX  90
6HR MIN TEMP:  73; 6HR MAX TEMP:  88;

ALBUQUERQUE NM MOSUNNY   80  55  42 CALM      30.26F
6HR MIN TEMP:  68; 6HR MAX TEMP:  80;

SALT LAKE CITY PTSUNNY   88  33  14 W3        30.12F
6HR MIN TEMP:  65; 6HR MAX TEMP:  88;

LOS ANGELES CA MOSUNNY   73  63  70 W8        29.98S
6HR MIN TEMP:  67; 6HR MAX TEMP:  74;




USA.gov is the U.S. government's official web portal to all federal, state and local government web resources and services.